Weather History for Fryeburg, ME

Change the Weather History Date:

Wednesday, January 16, 2013

  Actual Average Record
Temperature  
Mean Temperature 24 °F -  
Max Temperature 28 °F 24 °F 35 °F (1997)
Min Temperature 19 °F 3 °F -29 °F (2009)
Degree Days  
Heating Degree Days 42    
Moisture  
Dew Point 24 °F    
Average Humidity 90    
Maximum Humidity 100    
Minimum Humidity 75    
Precipitation  
Precipitation 0.31 in - - ()
Sea Level Pressure  
Sea Level Pressure 29.96 in    
Wind  
Wind Speed 1 mph (NNW)    
Max Wind Speed 5 mph    
Max Gust Speed -    
Visibility 3 miles    
Events Fog , Snow    
Averages and records for this station are not official NWS values.
T = Trace of Precipitation, MM = Missing Value Source: NWS Daily Summary

Daily Weather History Graph

Daily Weather History Graph

Search for Another Location

Airport:

Trip Planner

Search our weather history database for the weather conditions in past years. The results will help you decide how hot, cold, wet, or windy it might be!

Date:

Astronomy

Jan. 16, 2013 Rise Set
Actual Time 7:14 AM EST 4:33 PM EST
Civil Twilight 6:42 AM EST 5:05 PM EST
Nautical Twilight 6:07 AM EST 5:40 PM EST
Astronomical Twilight 5:32 AM EST 6:15 PM EST
Moon 9:36 AM EST (1/16) 10:35 PM EST (1/16)
Length of Visible Light 10h 22m
Length of Day
9h 18m
Waxing Crescent, 28% of the Moon is Illuminated
Jan 16
Waxing Crescent
Jan 18
First Quarter
Jan 26
Full
Feb 3
Last Quarter
Feb 10
New

Hourly Weather History & Observations

Time (EST) Temp. Windchill Dew Point Humidity Pressure Visibility Wind Dir Wind Speed Gust Speed Precip Events Conditions
12:54 AM 26.1 °F - 21.0 °F 81% 30.26 in 10.0 mi Calm Calm - N/A   Partly Cloudy
1:54 AM 26.1 °F - 19.9 °F 78% 30.25 in 10.0 mi Calm Calm - N/A   Clear
2:54 AM 26.1 °F - 19.9 °F 78% 30.24 in 10.0 mi Calm Calm - N/A   Mostly Cloudy
3:54 AM 27.0 °F - 19.9 °F 75% 30.20 in 10.0 mi Calm Calm - N/A   Overcast
4:54 AM 27.0 °F - 21.0 °F 78% 30.18 in 10.0 mi Calm Calm - N/A   Overcast
5:54 AM 27.0 °F - 21.0 °F 78% 30.17 in 8.0 mi Calm Calm - 0.00 in Snow Light Snow
6:05 AM 26.6 °F 22.6 °F 21.2 °F 80% 30.15 in 2.5 mi WNW 3.5 mph - 0.00 in Snow Light Snow
6:12 AM 26.6 °F 22.6 °F 21.2 °F 80% 30.13 in 3.0 mi NW 3.5 mph - 0.00 in Snow Light Snow
6:17 AM 26.6 °F 22.6 °F 21.2 °F 80% 30.14 in 1.8 mi WNW 3.5 mph - 0.00 in Snow Light Snow
6:38 AM 26.6 °F - 24.8 °F 93% 30.14 in 1.0 mi Calm Calm - 0.01 in Snow Light Snow
6:54 AM 26.1 °F - 25.0 °F 96% 30.15 in 1.0 mi Calm Calm - 0.02 in Snow Light Snow
7:05 AM 26.6 °F - 24.8 °F 93% 30.13 in 1.5 mi Calm Calm - 0.00 in Snow Light Snow
7:16 AM 26.6 °F - 24.8 °F 93% 30.13 in 1.2 mi Calm Calm - 0.01 in Snow Light Snow
7:39 AM 26.6 °F - 24.8 °F 93% 30.13 in 0.5 mi Calm Calm - 0.02 in Fog , Snow Snow
7:54 AM 26.1 °F - 24.1 °F 92% 30.15 in 0.8 mi Calm Calm - 0.03 in Snow Light Snow
7:59 AM 26.6 °F - 24.8 °F 93% 30.13 in 1.0 mi Calm Calm - 0.01 in Snow Light Snow
8:12 AM 26.6 °F - 24.8 °F 93% 30.14 in 0.8 mi Calm Calm - 0.01 in Snow Light Snow
8:31 AM 26.6 °F - 24.8 °F 93% 30.12 in 1.0 mi Calm Calm - 0.02 in Snow Light Snow
8:47 AM 26.6 °F - 24.8 °F 93% 30.12 in 0.8 mi Calm Calm - 0.03 in Snow Light Snow
8:54 AM 26.1 °F - 24.1 °F 92% 30.14 in 0.8 mi Calm Calm - 0.03 in Snow Light Snow
9:28 AM 26.6 °F - 24.8 °F 93% 30.10 in 1.2 mi Calm Calm - 0.02 in Snow Light Snow
9:54 AM 27.0 °F - 24.1 °F 89% 30.09 in 1.0 mi Calm Calm - 0.03 in Snow Light Snow
10:37 AM 26.6 °F 22.6 °F 24.8 °F 93% 30.05 in 0.5 mi North 3.5 mph - 0.03 in Fog , Snow Light Snow
10:54 AM 27.0 °F 23.0 °F 25.0 °F 92% 30.06 in 0.5 mi North 3.5 mph - 0.04 in Fog , Snow Light Snow
11:46 AM 26.6 °F - 24.8 °F 93% 29.98 in 1.0 mi Calm Calm - 0.03 in Snow Light Snow
11:51 AM 28.4 °F 24.6 °F 24.8 °F 86% 29.98 in 0.8 mi Variable 3.5 mph - 0.04 in Snow Light Snow
11:54 AM 28.0 °F 24.2 °F 25.0 °F 88% 30.00 in 0.8 mi NNW 3.5 mph - 0.04 in Snow Light Snow
12:33 PM 28.4 °F - 26.6 °F 93% 29.94 in 1.0 mi Calm Calm - 0.02 in Snow Light Snow
12:54 PM 28.0 °F 24.2 °F 25.0 °F 88% 29.96 in 1.2 mi North 3.5 mph - 0.02 in Snow Light Snow
1:18 PM 28.4 °F 24.6 °F 24.8 °F 86% 29.92 in 1.8 mi North 3.5 mph - 0.01 in Snow Light Snow
1:25 PM 28.4 °F 24.6 °F 24.8 °F 86% 29.93 in 1.2 mi North 3.5 mph - 0.01 in Snow Light Snow
1:41 PM 28.4 °F 23.3 °F 26.6 °F 93% 29.90 in 0.8 mi NNE 4.6 mph - 0.02 in Snow Light Snow
1:54 PM 28.0 °F 24.2 °F 26.1 °F 92% 29.92 in 1.0 mi North 3.5 mph - 0.02 in Snow Light Snow
2:42 PM 28.4 °F - 26.6 °F 93% 29.88 in 1.0 mi Calm Calm - 0.02 in Snow Light Snow
2:50 PM 28.4 °F 24.6 °F 26.6 °F 93% 29.88 in 1.5 mi NNW 3.5 mph - 0.02 in Snow Light Snow
2:54 PM 28.0 °F - 26.1 °F 92% 29.90 in 1.5 mi Calm Calm - 0.02 in Snow Light Snow
3:06 PM 28.4 °F - 26.6 °F 93% 29.86 in 1.2 mi Calm Calm - 0.00 in Snow Light Snow
3:44 PM 28.4 °F - 26.6 °F 93% 29.87 in 0.8 mi Calm Calm - 0.02 in Snow Light Snow
3:54 PM 28.0 °F - 26.1 °F 92% 29.88 in 0.8 mi Calm Calm - 0.02 in Snow Light Snow
4:28 PM 28.4 °F 24.6 °F 26.6 °F 93% 29.86 in 1.0 mi NNW 3.5 mph - 0.02 in Snow Light Snow
4:43 PM 28.4 °F - 26.6 °F 93% 29.86 in 2.0 mi Calm Calm - 0.02 in Snow Light Snow
4:54 PM 28.0 °F - 26.1 °F 92% 29.88 in 2.5 mi Calm Calm - 0.02 in Snow Light Snow
5:09 PM 28.4 °F - 26.6 °F 93% 29.85 in 1.8 mi Calm Calm - 0.00 in Snow Light Snow
5:39 PM 28.4 °F - 26.6 °F 93% 29.84 in 2.0 mi Calm Calm - 0.01 in Snow Light Snow
5:54 PM 28.0 °F - 26.1 °F 92% 29.85 in 1.8 mi Calm Calm - 0.01 in Snow Light Snow
6:10 PM 26.6 °F - 24.8 °F 93% 29.82 in 3.0 mi Calm Calm - 0.01 in Snow Light Snow
6:28 PM 26.6 °F - 26.6 °F 100% 29.82 in 4.0 mi Calm Calm - 0.01 in Snow Light Snow
6:54 PM 27.0 °F - 26.1 °F 96% 29.84 in 9.0 mi Calm Calm - 0.01 in   Overcast
7:31 PM 26.6 °F - 24.8 °F 93% 29.82 in 10.0 mi Calm Calm - N/A   Overcast
7:54 PM 27.0 °F - 26.1 °F 96% 29.83 in 10.0 mi Calm Calm - N/A   Overcast
8:24 PM 26.6 °F - 26.6 °F 100% 29.80 in 10.0 mi Calm Calm - N/A   Overcast
8:51 PM 28.4 °F - 26.6 °F 93% 29.81 in 10.0 mi Calm Calm - 0.00 in   Overcast
8:54 PM 28.0 °F - 26.1 °F 92% 29.82 in 10.0 mi Calm Calm - 0.00 in   Overcast
9:54 PM 27.0 °F - 26.1 °F 96% 29.80 in 10.0 mi Calm Calm - N/A   Overcast
10:27 PM 26.6 °F - 24.8 °F 93% 29.78 in 2.5 mi Calm Calm - N/A   Scattered Clouds
10:37 PM 24.8 °F - 21.2 °F 86% 29.77 in 5.0 mi Calm Calm - N/A   Partly Cloudy
10:42 PM 24.8 °F - 21.2 °F 86% 29.77 in 1.5 mi Calm Calm - N/A   Scattered Clouds
10:44 PM 24.8 °F - 23.0 °F 93% 29.77 in 0.8 mi Calm Calm - N/A   Scattered Clouds
10:50 PM 23.0 °F - 21.2 °F 93% 29.77 in 0.5 mi Calm Calm - N/A Fog Light Freezing Fog
10:54 PM 24.1 °F - 21.0 °F 88% 29.79 in 1.2 mi Calm Calm - N/A   Mostly Cloudy
10:56 PM 23.0 °F - 21.2 °F 93% 29.76 in 4.0 mi Calm Calm - N/A   Mostly Cloudy
11:49 PM 19.4 °F - 17.6 °F 93% 29.76 in 8.0 mi Calm Calm - N/A   Overcast
11:54 PM 19.9 °F - 18.0 °F 92% 29.79 in 2.5 mi Calm Calm - N/A   Overcast